Location: Haliburton Scout Reserve
(45.0900°N, 78.3200°W)
Time: 11:36:19
(UTC-05:00)

N. Korean satellite - Pass Details

Date: 04 December 2021
Orbit: 447 x 491 km, 97.3° (Epoch: 23 January)

Event Time Altitude Azimuth Distance (km) Brightness Sun altitude
Rises 04:33:37 0° 30° (NNE) 2,464 10.5 -31.2°
Reaches altitude 10° 04:36:20 10° 55° (NE) 1,582 9.7 -30.7°
Maximum altitude 04:38:23 15° 92° (E) 1,294 9.5 -30.4°
Drops below altitude 10° 04:40:25 10° 130° (SE) 1,571 9.7 -30.0°
Sets 04:43:06 0° 154° (SSE) 2,437 10.5 -29.6°
